Regional Weather Roundup
Issued by NWS Lake Charles, LA

Home | Current Version | Previous Version | Text Only | Print | Product List | Glossary On
Versions: 1 2 3 4 5 6 7 8 9 10 11 12 13 14 15 16 17 18 19 20 21 22 23 24 25 26 27 28 29 30 31 32 33 34 35 36 37 38 39 40 41 42 43 44 45 46 47 48 49 50
000
ASUS44 KLCH 060010
RWRLCH
REGIONAL WEATHER ROUNDUP
NATIONAL WEATHER SERVICE LAKE CHARLES LA
600 PM CST FRI FEB 05 2016

Note: "fair" indicates few or no clouds below 12,000 feet with no
significant weather and/or obstructions to visibility.


ACROSS SOUTHEAST TEXAS

CITY           SKY/WX    TMP DP  RH WIND       PRES   REMARKS
BEAUMONT       CLEAR     47  28  47 S7        30.38R
BEAUMONT CITY  FAIR      50  26  39 S7        30.38R
ORANGE         CLEAR     49  25  39 S5        30.39R
JASPER         CLEAR     54  21  27 CALM      30.37R
$$

ACROSS CENTRAL LOUISIANA

CITY           SKY/WX    TMP DP  RH WIND       PRES   REMARKS
LEESVILLE      PTCLDY    51  23  32 S5        30.34S
FULLERTON      FAIR      49  29  46 CALM      30.32S
ALEXANDRIA INT PTCLDY    47  30  51 SE6       30.36S
ESLER FIELD    CLEAR     50  22  33 NE3       30.37S
DERIDDER         N/A     53  19  26 SE3       30.37R
OAKDALE          N/A     46  29  51 CALM      30.37S
OPELOUSAS      FAIR      50  20  30 CALM      30.37S
$$

ACROSS SOUTHWEST AND SOUTH CENTRAL LOUISIANA

CITY           SKY/WX    TMP DP  RH WIND       PRES   REMARKS
SULPHUR        CLEAR     49  27  42 MISG      30.37S
LAKE CHARLES   CLEAR     49  27  42 SE3       30.37S
CHENNAULT INT  CLEAR     46  27  46 SE5       30.37S
CAMERON PHI    CLEAR     52  30  43 SE8       30.40R
DEQUINCY       FAIR      49  29  46 CALM      30.36R
JENNINGS       FAIR      50  23  34 CALM      30.37S
LAFAYETTE      CLEAR     53  21  28 CALM      30.36F
NEW IBERIA     CLEAR     48  26  42 E5        30.37F
ABBEVILLE      FAIR      49  24  37 CALM      30.37S
PATTERSON      CLEAR     48  21  34 E6        30.38S
SALT POINT       N/A     48  31  51 CALM      30.36S
$$

SELECTED SITES ACROSS THE REGION

CITY           SKY/WX    TMP DP  RH WIND       PRES   REMARKS
HOUSTON BUSH   PTCLDY    52  32  46 SE13      30.36R
HOUSTON HOBBY  PTCLDY    52  34  50 SE9       30.36R
GALVESTON      CLEAR     51  34  52 E10       30.37R
COLLEGE STAT   CLEAR     54  24  31 SE9       30.31S
CONROE         CLEAR     51  25  36 SE9       30.35R
HUNTSVILLE     CLEAR     55  21  26 S5        30.32R
LUFKIN         PTCLDY    51  25  36 SE3       30.33S
SHREVEPORT     MOCLDY    51  19  28 SE5       30.34S
MONROE         PTCLDY    49  25  39 E3        30.38F
NATCHEZ MS     CLEAR     48  19  32 NW5       30.37S
BATON ROUGE    CLEAR     51  18  27 E5        30.36F
N.O. INTL ARPT PTCLDY    51  16  24 CALM      30.38S
SLIDELL        CLEAR     48  28  46 CALM      30.37F
$$

MARINE REPORTS

STATION/POSITION TIME  SKY/WX   TEMP    WIND        PRES    VSBY
                                AIR SEA DIR/SP/G
                 (UTC)          (F)     (DEG/KT/KT) (MB)    (MI)
BUOY 30 S HIGH I 2350            53 59  100/ 10/ 12 1028.5R
WVE H/P(F/S)=  2/ 4

SEA RIM ST PARK  0000            50     150/  5/  7 1029.4R
PORT ARTHUR      NOT AVBL
SABINE PASS N    NOT AVBL
TEXAS POINT      NOT AVBL
CALCASIEU PASS   NOT AVBL
LK CHARLES BEACH NOT AVBL
MARSH ISLAND     2300            51     120/ 10/ 12   N/A
WVE H/P(F/S)=  0

FRESH WATER LOCK NOT AVBL
AMERADA PASS     NOT AVBL
$$



USA.gov is the U.S. government's official web portal to all federal, state and local government web resources and services.